K7MT-WX Weather Reports


time (UTC)temp
C
wind
direction
speed
KPH
gust
KPH
rain 1hr
cm
rain 24hr
cm
rain mn
cm
humidity
%
barometer
mb
20260502224209 21 220 4.8 9.7 0.00 0.00 0.00 29 1015.2
20260502222639 21 219 4.8 4.8 0.00 0.00 0.00 30 1015.4
20260502221109 21 246 4.8 4.8 0.00 0.00 0.00 30 1015.5
20260502215609 21 226 1.6 3.2 0.00 0.00 0.00 31 1015.8
20260502214039 20 205 3.2 4.8 0.00 0.00 0.00 31 1016.2
20260502212539 20 165 8.0 19.3 0.00 0.00 0.00 33 1016.3
20260502211009 20 215 4.8 8.0 0.00 0.00 0.00 33 1016.5
20260502205509 18 159 4.8 9.7 0.00 0.00 0.00 32 1016.7
20260502203939 18 220 3.2 4.8 0.00 0.00 0.00 35 1016.9
20260502202439 18 194 4.8 9.7 0.00 0.00 0.00 36 1017.0
20260502200939 18 182 3.2 4.8 0.00 0.00 0.00 34 1017.2
20260502195409 18 170 4.8 4.8 0.00 0.00 0.00 32 1017.4
20260502193909 19 161 4.8 4.8 0.00 0.00 0.00 30 1017.5
20260502192339 20 213 4.8 4.8 0.00 0.00 0.00 29 1017.7
20260502190839 19 277 3.2 4.8 0.00 0.00 0.00 30 1017.8
20260502185339 20 198 4.8 9.7 0.00 0.00 0.00 32 1018.0
20260502183809 18 238 3.2 8.0 0.00 0.00 0.00 34 1018.2
20260502182309 18 129 4.8 9.7 0.00 0.00 0.00 33 1018.4
20260502180739 17 156 8.0 11.3 0.00 0.00 0.00 37 1018.7
20260502163639 15 161 4.8 4.8 0.00 0.00 0.00 46 1019.4
20260502162139 14 172 3.2 4.8 0.00 0.00 0.00 45 1019.5
20260502160609 13 134 3.2 8.0 0.00 0.00 0.00 47 1019.6
20260502152009 12 133 1.6 3.2 0.00 0.00 0.00 46 1020.0
20260502150439 11 54 1.6 4.8 0.00 0.00 0.00 50 1020.0
20260502130239 1 281 0.0 0.0 0.00 0.00 0.00 80 1019.4
20260502123239 0 240 0.0 0.0 0.00 0.00 0.00 83 1019.0
20260502121709 0 238 0.0 0.0 0.00 0.00 0.00 83 1018.9
20260502120139 0 238 0.0 0.0 0.00 0.00 0.00 82 1018.9
20260502114639 0 238 0.0 0.0 0.00 0.00 0.00 80 1018.7
20260502113139 1 238 0.0 0.0 0.00 0.00 0.00 80 1018.7
20260502111639 1 266 0.0 0.0 0.00 0.00 0.00 77 1018.5
20260502110109 1 266 0.0 0.0 0.00 0.00 0.00 76 1018.4
20260502104609 1 266 0.0 1.6 0.00 0.00 0.00 78 1018.2
20260502103039 2 290 0.0 0.0 0.00 0.00 0.00 76 1018.3
20260502101509 2 290 0.0 0.0 0.00 0.00 0.00 76 1018.2
20260502091509 3 289 0.0 0.0 0.00 0.00 0.00 70 1017.8
20260502071309 6 297 0.0 0.0 0.00 0.00 0.00 61 1017.4
20260502065739 6 227 0.0 0.0 0.00 0.00 0.00 62 1017.4
20260502064239 6 275 0.0 0.0 0.00 0.00 0.00 60 1017.3
20260502062739 6 275 0.0 0.0 0.00 0.00 0.00 60 1017.2
20260502061209 7 275 0.0 0.0 0.00 0.00 0.00 59 1017.1
20260502055709 8 275 0.0 0.0 0.00 0.00 0.00 56 1017.1
20260502054209 8 293 0.0 0.0 0.00 0.00 0.00 53 1017.0
20260502052639 8 295 0.0 0.0 0.00 0.00 0.00 52 1016.9
20260502051139 9 295 0.0 0.0 0.00 0.00 0.00 52 1016.9
20260502045609 9 295 0.0 0.0 0.00 0.00 0.00 52 1016.9
20260502044039 9 22 0.0 0.0 0.00 0.00 0.00 56 1016.8
20260502042539 9 44 0.0 0.0 0.00 0.00 0.00 57 1016.8
20260502041009 10 44 0.0 0.0 0.00 0.00 0.00 57 1016.6
20260502035439 10 44 0.0 0.0 0.00 0.00 0.00 55 1016.5
20260502033909 11 42 1.6 3.2 0.00 0.00 0.00 50 1016.3
20260502032339 12 229 0.0 0.0 0.00 0.00 0.00 44 1016.0
20260502030839 14 274 0.0 0.0 0.00 0.00 0.00 39 1015.8
20260502025309 16 268 0.0 1.6 0.00 0.00 0.00 36 1015.6
20260502023809 16 277 1.6 3.2 0.00 0.00 0.00 35 1015.5
20260502022309 18 273 0.0 1.6 0.00 0.00 0.00 33 1015.4
20260502020809 19 268 3.2 4.8 0.00 0.00 0.00 30 1015.3
20260502015239 20 291 3.2 4.8 0.00 0.00 0.00 28 1015.3
20260502013739 20 290 8.0 9.7 0.00 0.00 0.00 27 1015.4
20260502012239 21 293 8.0 8.0 0.00 0.00 0.00 26 1015.4
20260502010709 21 281 4.8 4.8 0.00 0.00 0.00 24 1015.5
20260502005209 21 287 8.0 9.7 0.00 0.00 0.00 24 1015.5
20260502003709 21 295 4.8 8.0 0.00 0.00 0.00 22 1015.6
20260502002209 22 269 8.0 12.9 0.00 0.00 0.00 21 1015.7
20260502000639 22 283 3.2 4.8 0.00 0.00 0.00 22 1015.7
20260501235109 22 290 4.8 8.0 0.00 0.00 0.00 20 1015.9
20260501233609 22 281 8.0 12.9 0.00 0.00 0.00 21 1015.9
20260501232109 22 276 4.8 8.0 0.00 0.00 0.00 21 1016.0
20260501230539 22 294 3.2 4.8 0.00 0.00 0.00 20 1016.2
20260501225039 22 253 3.2 4.8 0.00 0.00 0.00 20 1016.2